Regional Weather Roundup
Issued by NWS Mobile, AL

Home | Current Version | Previous Version | Text Only | Print | Product List | Glossary On
Versions: 1 2 3 4 5 6 7 8 9 10 11 12 13 14 15 16 17 18 19 20 21 22 23 24 25 26 27 28 29 30 31 32 33 34 35 36 37 38 39 40 41 42 43 44 45 46 47 48 49 50
000
ASUS44 KMOB 250210
RWRMOB
REGIONAL WEATHER ROUNDUP
NATIONAL WEATHER SERVICE MOBILE AL
900 PM CDT THU JUL 24 2014

NOTE: "FAIR" INDICATES FEW OR NO CLOUDS BELOW 12,000 FEET WITH NO
      SIGNIFICANT WEATHER AND/OR OBSTRUCTIONS TO VISIBILITY.

  * THESE STATIONS ARE PART OF THE UNIVERSITY OF SOUTH ALABAMA
    MESONET AND ARE NOT UNDER NWS OR FAA QUALITY CONTROL.

ALZ061>064-250300-
COASTAL ALABAMA

CITY           SKY/WX    TMP DP  RH WIND       PRES   REMARKS
MOBILE REG APT PTCLDY    78  74  87 S3        29.99R
BROOKLEY FIELD CLEAR     79  73  82 CALM      29.99R
USA CAMPUS*      N/A     77  73  88 CALM      29.97R
DOG RIVER*       N/A     79  73  83 S2        29.98R


CITY           SKY/WX    TMP DP  RH WIND       PRES   REMARKS
MOUNT VERNON*    N/A     77  73  88 S2        29.96R
SARALAND*      NOT AVBL
BAY MINETTE*   NOT AVBL
LOXLEY*          N/A     77  72  83 S3        29.99R
ROBERTSDALE*     N/A    N/A N/A N/A CALM      29.98R
FAIRHOPE*        N/A     77  73  88 CALM      29.98R
ELBERTA*         N/A     79  66  65 CALM      29.98R
FOLEY*         NOT AVBL
GRAND BAY*       N/A     79  73  83 CALM      29.96R
DAUPHIN ISLND* NOT AVBL
BON SCOUR NWR* NOT AVBL
GULF SHORES    CLEAR     79  74  84 CALM      29.98R

$$

ALZ051>060-250300-
INTERIOR SOUTHWEST AND SOUTH CENTRAL ALABAMA

CITY           SKY/WX    TMP DP  RH WIND       PRES   REMARKS
GREENVILLE     PTCLDY    82  72  71 N6        29.98R
EVERGREEN      PTCLDY    80  73  79 S3        29.98R
CASTLEBERRY*   NOT AVBL
ATMORE*          N/A     77  75  94 S2        29.99R
DIXIE*         NOT AVBL
ANDALUSIA/OPP  CLEAR     82  74  76 CALM      29.98R
ANDALUSIA*     NOT AVBL
FLORALA APT    CLEAR     80  74  81 SW3       30.00R
FLORALA*         N/A     77  73  88 CALM      29.95S

$$

FLZ001>006-250300-
WESTERN FLORIDA PANHANDLE

CITY           SKY/WX    TMP DP  RH WIND       PRES   REMARKS
PENSACOLA      CLEAR     79  72  79 SW6       29.98R
NAS PENSACOLA  PTCLDY    79  74  84 W3        29.98R
MILTON         PTCLDY    78  71  79 SW5       29.98R
WHTNG S FIELD  PTCLDY    78  72  81 S5        29.98R


CITY           SKY/WX    TMP DP  RH WIND       PRES   REMARKS
WALNUT HILL*   NOT AVBL
JAY*           NOT AVBL
DUKE FIELD     PTCLDY    80  76  89 SW6       29.99R
CRESTVIEW      CLEAR     78  74  87 S3        30.00R
VALPARAISO     PTCLDY    81  74  78 SW5       29.99R
DESTIN         CLEAR     83  75  77 SW5       29.99R

$$

MSZ076-079-250300-
INTERIOR SOUTHEAST MISSISSIPPI

CITY           SKY/WX    TMP DP  RH WIND       PRES   REMARKS
LEAKESVILLE*     N/A     79  72  78 SW3         N/A
AGRICOLA*      NOT AVBL

$$

MARINE OBSERVATIONS

STATION/POSITION TIME  TEMP    WIND        PRES    WAVE
                       AIR SEA DIR/SP/G            HT/PER
                 (UTC) (F)     (DEG/KT/KT) (MB)    (FT/S)
PASCAGOULA       0200   82     170/  7/  9 1014.8S
PETIT BOIS ISLND 0200   82     180/  7/  8 1015.3S
GRAND BAY        0100   82     200/  7     1015.0S
KATRINA CUT      0100   83     200/  9     1015.2R
CEDAR POINT      0100   82     210/  8     1014.6R
E DAUPHIN ISLAND 0100   83     180/  8/ 11 1014.5R
MIDDLE BAY LIGHT 0100   83     200/ 10     1014.2S
USCG MOBILE BAY  0200   81 83  200/  4/  5 1014.1R
STATE DOCKS      0200   83 85              1014.7R
MEAHER PARK      0100   83     190/  8     1014.6R
WEEKS BAY        0100   81                   N/A
FORT MORGAN      0200   82     210/  8/  9 1014.9R
12 S ORANGE BCH  0200   83 84  190/ 10/ 12 1015.2R   1/ 4
PENSACOLA BAY    0200   85 85  220/  5/  7 1015.6R
64 S DAUPHIN ISL 0100   84 86  220/ 10/ 12 1015.6R
67 S FORT MORGAN 0100   83                 1015.2R

$$

SELECTED LOCATIONS ACROSS THE REGION

CITY           SKY/WX    TMP DP  RH WIND       PRES   REMARKS
NEW ORLEANS    PTCLDY    82  75  79 S8        29.96R
GULFPORT       CLEAR     84  74  71 S5        29.96R
PASCAGOULA AP  CLEAR     78  74  87 S3        29.97R
PASCAGOULA*      N/A     81  73  78 S3        29.97R
HATTIESBURG    MOCLDY    82  75  79 CALM      29.96R
LAUREL         CLEAR     79  72  78 CALM      29.98R
MERIDIAN       PTCLDY    75  73  93 SW3       29.97R
JACKSON        PTCLDY    80  74  81 N6        29.98R
MONTGOMERY     CLOUDY    80  71  74 CALM      29.96R
TROY           LGT RAIN  79  73  82 S8        29.98R
KINSTON*       NOT AVBL
GENEVA*          N/A     77  72  83 CALM      30.00R
ASHFORD*       NOT AVBL
DOTHAN         CLEAR     78  74  87 SW5       30.02R
PANAMA CITY    CLEAR     80  74  81 S3        29.99R

$$




USA.gov is the U.S. government's official web portal to all federal, state and local government web resources and services.